Weather in Augsburg

Germany     48°22′10″N   10°53′33″E
temp.,
°C
wind,
m/s
gust,
m/s
humid.,
%
clouds,
%
prec.,
mm/h
press.,
hPa
HPBL,
m
20 june, sun
sun2023:00+20sse33755 0.0 101227
02:00+18sse2283100 0.0 101121
05:00+18s1187100 0.0 101111
08:00+19wsw388998 0.5 1013273
11:00+25w126293 0.0 1012848
14:00+27nne2351100 0.0 10101554
17:00+25ne487097 0.0 1007961
20:00+24ene6128023 0.0 1003447
21 june, mon
mon2123:00+17w4890100 4.1 1008156
02:00+15wnw259669 4.2 1009108
05:00+14wsw239793 0.3 100950
08:00+17wsw2290100 0.4 1010205
11:00+21nw22721 0.1 1010777
14:00+25n225945 0.2 10091514
17:00+22nnw348193 2.6 1009270
20:00+20n3483100 5.7 100983
22 june, tue
tue2223:00+17n3592100 0.9 1010104
02:00+16nnw259875 3.8 1011178
05:00+16ssw119638 0.0 101119
08:00+17nnw339348 0.1 1012299
11:00+20nne338190 0.0 1011749
14:00+22ne3375100 0.1 1010940
17:00+23ene347379 0.1 10091068
20:00+20sw6984100 4.0 1009259
23 june, wed
wed2323:00+14w5129699 6.7 1015593
02:00+14wsw599453 6.7 1017351
05:00+12w22950 0.0 101736
08:00+15n12885 0.0 1017271
11:00+19ne227120 0.0 1017901
14:00+22ne33618 0.0 10161300
17:00+22ene446422 0.0 10161202
20:00+20ne4880100 0.0 1014293
24 june, thu
thu2423:00+15n379899 6.9 1017208
02:00+15ene359816 9.7 1018185
05:00+13ne119844 0.0 101711
08:00+15n1195100 0.0 1017298
11:00+16nw2291100 0.0 1017478
14:00+16w4694100 0.6 1017434
17:00+19wnw458197 2.4 1017760
20:00+17wnw479159 4.9 1018395